Stations météo

Publicité
Bonn-Roleber, Allemagne (10519): Température de l'air & dewpoint: 20.04.2018 17:00:00 - 26.04.2018 17:00:00 (CEST)Bonn-Roleber, Allemagne (10519): Température de l'air 5cm & Température de l'air -5cm: 20.04.2018 17:00:00 - 26.04.2018 17:00:00 (CEST)Bonn-Roleber, Allemagne (10519): Température de l'air -20cm & Température de l'air -100cm: 20.04.2018 17:00:00 - 26.04.2018 17:00:00 (CEST)Bonn-Roleber, Allemagne (10519): Vitesse du vent & gusts: 20.04.2018 17:00:00 - 26.04.2018 17:00:00 (CEST)Bonn-Roleber, Allemagne (10519): Direction du vent: 20.04.2018 17:00:00 - 26.04.2018 17:00:00 (CEST)Bonn-Roleber, Allemagne (10519): reduced air pressure: 20.04.2018 17:00:00 - 26.04.2018 17:00:00 (CEST)Bonn-Roleber, Allemagne (10519): visibility: 20.04.2018 17:00:00 - 26.04.2018 17:00:00 (CEST)Bonn-Roleber, Allemagne (10519): Ensoleillement: 20.04.2018 17:00:00 - 26.04.2018 17:00:00 (CEST)Bonn-Roleber, Allemagne (10519): Quantités de précipitations: 20.04.2018 17:00:00 - 26.04.2018 17:00:00 (CEST)
Date & Time tt [°C] td [°C] tt 5cm [°C] tt -5cm [°C] tt -20cm [°C] tt -100cm [°C] ff [km/h] ff [knt] fx [km/h] fx [knt] dd ppp [hPa] vv [km] sd [min] rr [mm]
26.04.2018 17:00:00 13,4 1,4 13,9 20,3 14,7 12,0 10 5 42 23 W 1017,2 66 34 0,0
26.04.2018 16:00:00 13,8 0,2 15,7 20,2 14,2 12,0 17 9 36 20 W 1017,4 57 37 0,0
26.04.2018 15:00:00 12,9 2,7 14,4 18,4 13,7 12,0 11 6 36 19 WNW 1017,7 59 22 0,0
26.04.2018 14:00:00 12,1 1,8 13,1 17,2 13,3 12,0 15 8 43 23 W 1017,8 46 17 0,0
26.04.2018 13:00:00 11,4 2,2 12,2 16,3 12,9 12,0 14 8 37 20 W 1018,0 52 27 0,0
26.04.2018 12:00:00 11,0 3,4 13,2 13,7 12,6 12,0 14 8 44 24 W 1017,8 47 6 0,0
26.04.2018 11:00:00 10,7 3,1 12,2 13,2 12,4 12,0 18 10 40 22 WNW 1017,5 44 7 0,0
26.04.2018 10:00:00 10,2 4,4 11,7 11,9 12,3 12,0 16 9 36 19 W 1017,0 59 22 0,0
26.04.2018 09:00:00 9,3 4,6 10,1 10,5 12,3 12,0 13 7 29 15 W 1016,8 39 27 0,0
26.04.2018 08:00:00 8,1 5,3 7,6 9,5 12,5 12,0 6 3 16 9 WSW 1016,3 41 0 0,0
26.04.2018 07:00:00 7,5 5,0 6,6 9,3 12,7 12,0 7 4 32 18 WSW 1015,5 39 0 0,2
26.04.2018 06:00:00 8,3 3,7 8,0 9,3 12,9 12,0 13 7 26 14 SW 1015,2 56 0 0,0
26.04.2018 05:00:00 7,9 3,1 7,4 8,8 13,3 12,0 11 6 23 13 SW 1015,1 58 0 0,0
26.04.2018 04:00:00 7,2 2,6 5,7 9,0 13,7 12,0 11 6 20 11 SW 1014,9 62 0 0,0
26.04.2018 03:00:00 7,7 2,1 5,9 9,6 14,1 12,0 11 6 22 12 SW 1015,0 58 0 0,0
26.04.2018 02:00:00 8,7 1,8 6,8 10,2 14,5 12,0 10 5 23 12 SW 1015,1 70 0 0,0
26.04.2018 01:00:00 9,2 2,3 7,1 11,1 14,9 12,0 6 4 31 17 WSW 1015,1 56 0 0,0
26.04.2018 00:00:00 10,7 2,0 9,1 12,1 15,3 12,0 11 6 35 19 W 1014,6 62 0 0,0
25.04.2018 23:00:00 11,9 2,0 10,4 13,4 15,7 12,0 17 9 40 22 W 1014,1 63 0 0,0
25.04.2018 22:00:00 12,3 4,6 11,0 14,3 16,0 12,0 8 5 19 10 WNW 1013,5 70 0 0,0
25.04.2018 21:00:00 12,2 5,0 10,2 15,4 16,2 12,0 6 4 18 10 WNW 1012,7 70 3 0,0
25.04.2018 20:00:00 13,2 5,2 11,6 17,3 16,2 12,0 9 5 29 16 WNW 1012,3 54 22 0,0
25.04.2018 19:00:00 15,3 4,8 15,4 19,1 16,1 12,0 11 6 40 22 WNW 1012,0 41 41 0,0
25.04.2018 18:00:00 15,3 5,4 15,9 19,7 15,8 11,9 18 10 33 18 WNW 1012,0 45 42 0,0
25.04.2018 17:00:00 15,1 6,1 16,8 19,4 15,6 11,9 19 10 46 25 WNW 1012,5 36 33 0,0
25.04.2018 16:00:00 15,4 6,6 16,6 17,9 15,4 11,9 17 9 43 23 WNW 1012,4 42 14 0,0
25.04.2018 15:00:00 14,6 7,1 15,8 18,5 15,1 11,9 21 12 38 20 WNW 1012,4 38 22 0,0
25.04.2018 14:00:00 14,9 8,6 17,8 16,7 14,8 11,9 16 9 34 19 WNW 1012,0 28 12 0,0
25.04.2018 13:00:00 14,2 8,4 15,1 16,2 14,7 11,9 18 10 33 18 W 1012,0 57 2 0,0
25.04.2018 12:00:00 13,2 10,1 13,9 15,0 14,6 11,9 10 5 28 15 W 1012,1 70 1 0,0
25.04.2018 11:00:00 11,6 10,7 11,6 14,1 14,6 11,9 16 9 42 23 W 1011,7 16 0 1,2
25.04.2018 10:00:00 13,6 9,7 13,6 14,3 14,6 11,9 16 8 34 18 W 1010,7 34 0 0,0
25.04.2018 09:00:00 13,8 9,4 14,0 13,9 14,7 11,9 8 4 22 12 WSW 1010,3 26 1 0,0
25.04.2018 08:00:00 13,1 9,0 12,9 13,3 14,8 11,9 7 4 18 10 SW 1010,1 26 0 0,0
25.04.2018 07:00:00 12,9 8,4 12,6 13,1 15,0 11,9 13 7 22 12 SSW 1009,6 29 0 0,0
25.04.2018 06:00:00 13,1 8,1 12,4 13,2 15,2 11,9 11 6 21 12 SSW 1009,7 32 0 0,0
25.04.2018 05:00:00 13,2 8,1 12,6 13,2 15,4 11,9 14 7 26 14 SSW 1009,7 35 0 0,0
25.04.2018 04:00:00 13,2 7,8 12,6 13,0 15,7 11,9 14 8 22 12 SSW 1009,9 37 0 0,0
25.04.2018 03:00:00 12,8 8,0 11,5 13,2 16,0 11,9 16 9 28 15 SSW 1010,6 37 0 0,0
25.04.2018 02:00:00 13,3 8,0 11,9 13,8 16,4 11,9 15 8 22 12 SSW 1011,1 38 0 0,0
25.04.2018 01:00:00 13,0 9,3 11,2 14,5 16,7 11,9 11 6 20 11 SSW 1012,0 37 0 0,0
25.04.2018 00:00:00 14,0 10,3 12,1 15,7 17,0 11,9 9 5 15 8 SW 1012,6 34 0 0,0
24.04.2018 23:00:00 13,1 11,4 12,6 16,3 17,3 11,9 5 3 6 3 SSE 1013,1 13 0 0,0
24.04.2018 22:00:00 13,3 10,9 12,2 17,0 17,5 11,9 3 1 5 3 SE 1013,6 18 0 0,0
24.04.2018 21:00:00 14,6 10,7 13,4 18,3 17,7 11,9 4 2 7 4 E 1013,6 24 0 0,0
24.04.2018 20:00:00 15,7 10,3 15,4 19,7 17,7 11,9 4 2 13 7 NNW 1013,9 36 9 0,0
24.04.2018 19:00:00 16,3 10,3 16,9 21,1 17,6 11,9 8 5 14 8 NW 1014,3 32 39 0,0
24.04.2018 18:00:00 16,4 10,7 17,9 21,6 17,4 11,8 8 5 18 10 NNW 1014,8 26 9 0,0
24.04.2018 17:00:00 16,6 10,4 18,8 22,1 17,0 11,8 11 6 25 13 NNW 1015,3 30 26 0,0
24.04.2018 16:00:00 17,1 9,7 18,8 22,0 16,5 11,8 12 6 21 11 NW 1015,7 37 1 0,0
24.04.2018 15:00:00 17,6 9,1 19,7 22,6 16,0 11,8 10 6 23 12 SW 1016,3 49 33 0,0
24.04.2018 14:00:00 16,8 9,0 19,8 20,3 15,5 11,8 13 7 20 11 SSW 1016,8 49 7 0,0
24.04.2018 13:00:00 15,7 7,8 19,0 18,5 15,1 11,8 6 4 16 8 SW 1017,6 58 3 0,0
24.04.2018 12:00:00 14,4 6,5 16,0 17,9 14,7 11,8 8 4 16 9 W 1018,0 70 3 0,0
24.04.2018 11:00:00 13,6 5,8 16,3 16,9 14,3 11,8 12 7 22 12 SSW 1018,0 70 44 0,0
24.04.2018 10:00:00 12,3 6,0 15,0 14,0 14,2 11,8 10 6 23 13 SW 1017,9 44 39 0,0
24.04.2018 09:00:00 10,6 6,0 11,9 12,2 14,3 11,7 8 4 14 7 SW 1018,4 33 10 0,0
24.04.2018 08:00:00 9,3 6,0 8,9 10,9 14,6 11,7 8 4 14 8 SW 1018,2 34 0 0,0
24.04.2018 07:00:00 8,1 6,4 6,6 10,4 14,9 11,7 8 4 14 7 SSW 1017,9 28 0 0,0
24.04.2018 06:00:00 8,2 6,5 5,8 10,7 15,3 11,7 8 5 15 8 SSW 1017,7 27 0 0,0
24.04.2018 05:00:00 8,5 6,6 5,6 11,2 15,7 11,7 7 4 11 6 SSW 1018,0 27 0 0,0
24.04.2018 04:00:00 9,3 6,5 6,6 11,8 16,2 11,7 5 3 13 7 SW 1018,3 41 0 0,0
24.04.2018 03:00:00 9,8 6,6 7,5 12,4 16,6 11,7 6 3 21 12 W 1018,4 45 0 0,0
24.04.2018 02:00:00 10,3 6,8 6,8 13,1 17,1 11,6 5 3 14 7 W 1018,5 45 0 0,0
24.04.2018 01:00:00 11,7 6,8 9,5 13,9 17,6 11,6 7 4 25 14 W 1018,1 45 0 0,0
24.04.2018 00:00:00 12,5 7,2 10,3 14,7 18,1 11,6 8 4 20 11 W 1017,8 43 0 0,0
23.04.2018 23:00:00 13,0 6,9 9,4 15,8 18,7 11,6 5 3 13 7 W 1017,5 42 0 0,0
23.04.2018 22:00:00 13,9 6,9 11,9 17,0 19,2 11,6 8 4 16 9 W 1017,1 42 0 0,0
23.04.2018 21:00:00 14,8 6,6 12,9 18,7 19,6 11,6 9 5 26 14 W 1016,6 37 0 0,0
23.04.2018 20:00:00 16,2 6,6 14,4 21,3 19,7 11,6 14 7 34 19 WNW 1016,2 45 48 0,0
23.04.2018 19:00:00 17,7 6,9 17,5 23,8 19,7 11,6 16 9 34 18 WNW 1015,8 31 54 0,0
23.04.2018 18:00:00 18,6 8,0 19,5 25,2 19,4 11,5 14 8 34 18 WNW 1015,5 42 59 0,0
23.04.2018 17:00:00 19,5 8,2 22,0 26,1 19,0 11,5 14 8 30 16 WNW 1015,0 46 53 0,0
23.04.2018 16:00:00 19,0 8,4 21,6 25,9 18,5 11,5 15 8 39 21 WNW 1015,4 38 57 0,0
23.04.2018 15:00:00 18,4 8,8 21,5 24,0 18,1 11,5 13 7 29 16 WNW 1016,0 22 57 0,0
23.04.2018 14:00:00 17,3 9,0 19,7 22,8 17,7 11,5 16 9 30 16 WNW 1016,2 18 34 0,0
23.04.2018 13:00:00 16,8 10,5 19,8 21,8 17,4 11,5 15 8 30 16 WNW 1016,1 15 43 0,0
23.04.2018 12:00:00 17,1 11,2 21,3 20,9 17,0 11,4 13 7 26 14 NW 1015,6 14 42 0,0
23.04.2018 11:00:00 16,7 10,7 21,0 19,6 16,7 11,4 12 6 27 14 WNW 1015,3 19 60 0,0
23.04.2018 10:00:00 15,5 10,2 17,6 17,4 16,7 11,4 13 7 26 14 WNW 1015,2 31 19 0,0
23.04.2018 09:00:00 15,7 10,0 16,6 16,4 16,7 11,4 11 6 23 13 W 1014,7 33 36 0,0
23.04.2018 08:00:00 15,3 12,9 14,8 15,7 16,9 11,4 5 3 13 7 NW 1014,1 22 2 0,0
23.04.2018 07:00:00 14,4 12,8 13,5 15,6 17,1 11,4 3 1 19 11 NNW 1013,8 16 0 0,1
23.04.2018 06:00:00 15,9 12,3 15,2 15,7 17,4 11,3 8 4 22 12 W 1013,5 32 0 0,0
23.04.2018 05:00:00 16,0 12,4 15,0 16,1 17,6 11,3 10 5 17 9 SW 1013,2 36 0 0,0
23.04.2018 04:00:00 16,0 12,6 15,4 16,3 17,9 11,3 9 5 16 9 SW 1012,9 38 0 0,1
23.04.2018 03:00:00 15,8 12,8 14,3 16,7 18,2 11,3 11 6 45 24 WNW 1012,5 36 0 0,1
23.04.2018 02:00:00 18,1 12,1 16,5 17,0 18,6 11,3 10 5 16 9 SSW 1012,0 31 0 0,0
23.04.2018 01:00:00 18,5 12,2 16,5 17,5 19,0 11,3 10 5 17 9 SW 1011,9 34 0 0,0
23.04.2018 00:00:00 19,6 12,1 17,0 18,2 19,4 11,3 10 6 19 10 SW 1012,0 35 0 0,0
22.04.2018 23:00:00 20,9 11,9 18,4 19,2 19,7 11,2 9 5 19 11 SW 1011,7 36 0 0,0
22.04.2018 22:00:00 22,1 11,6 20,2 20,1 20,1 11,2 11 6 22 12 SW 1011,2 35 0 0,0
22.04.2018 21:00:00 22,8 10,2 20,7 21,4 20,4 11,2 12 7 32 17 SW 1010,5 42 0 0,0
22.04.2018 20:00:00 23,9 8,7 22,5 23,0 20,5 11,2 18 10 34 19 SW 1010,0 31 0 0,0
22.04.2018 19:00:00 23,8 13,4 23,0 24,8 20,5 11,2 3 2 8 4 WNW 1009,6 49 4 0,0
22.04.2018 18:00:00 23,7 12,5 24,2 25,9 20,4 11,2 5 3 42 23 NW 1009,5 46 10 0,0
22.04.2018 17:00:00 26,8 9,1 27,3 27,6 20,0 11,2 24 13 44 24 SSW 1008,8 34 38 0,0
22.04.2018 16:00:00 26,8 11,8 27,7 27,8 19,4 11,2 19 11 38 21 SSW 1009,6 36 15 0,0
22.04.2018 15:00:00 27,1 14,5 29,9 29,0 18,5 11,1 14 8 39 21 SSE 1010,2 32 47 0,0
22.04.2018 14:00:00 26,5 12,0 28,1 28,3 17,6 11,1 14 8 24 13 S 1011,0 35 52 0,0
22.04.2018 13:00:00 25,8 13,3 29,5 25,7 16,7 11,1 10 6 24 13 SSE 1011,8 31 60 0,0
22.04.2018 12:00:00 23,7 13,3 26,9 22,7 16,0 11,1 11 6 21 11 SSW 1012,9 27 60 0,0
22.04.2018 11:00:00 21,9 13,4 24,9 19,5 15,6 11,1 9 5 14 8 SSW 1013,7 16 59 0,0
22.04.2018 10:00:00 20,1 11,8 20,4 17,0 15,4 11,0 4 2 21 11 WSW 1013,6 16 51 0,0
22.04.2018 09:00:00 18,5 12,0 19,4 14,6 15,5 11,0 5 3 16 9 S 1013,9 12 60 0,0
22.04.2018 08:00:00 16,4 11,7 14,3 13,1 15,8 11,0 10 5 17 9 SSE 1014,3 11 37 0,0
22.04.2018 07:00:00 11,9 10,5 9,2 13,0 16,1 11,0 3 2 9 5 SSE 1014,8 4,6 0 0,0
22.04.2018 06:00:00 11,9 10,3 9,1 13,5 16,5 11,0 2 1 10 5 ESE 1015,1 6 0 0,0
22.04.2018 05:00:00 13,0 10,6 10,0 14,0 16,8 11,0 6 4 10 6 E 1015,5 8 0 0,0
22.04.2018 04:00:00 13,8 10,7 11,0 14,6 17,2 10,9 10 5 13 7 E 1015,9 10 0 0,0
22.04.2018 03:00:00 14,3 10,9 12,1 15,1 17,6 10,9 9 5 13 7 ESE 1016,5 11 0 0,0
22.04.2018 02:00:00 15,6 10,9 13,4 15,5 18,0 10,9 10 5 12 7 ESE 1017,1 12 0 0,0
22.04.2018 01:00:00 15,5 11,0 12,4 16,2 18,5 10,9 8 5 14 7 ESE 1017,6 13 0 0,0
22.04.2018 00:00:00 15,7 11,1 12,6 17,1 18,9 10,9 6 4 12 6 ESE 1017,9 11 0 0,0
21.04.2018 23:00:00 17,5 11,0 13,8 18,1 19,4 10,9 7 4 13 7 E 1018,0 13 0 0,0
21.04.2018 22:00:00 18,9 11,1 14,1 19,3 19,8 10,9 7 4 11 6 ENE 1017,9 14 0 0,0
21.04.2018 21:00:00 20,4 11,2 16,0 21,0 20,2 10,9 6 3 16 9 NNE 1017,9 12 0 0,0
21.04.2018 20:00:00 22,0 10,7 19,8 23,4 20,3 10,8 11 6 17 9 N 1017,5 13 33 0,0
21.04.2018 19:00:00 23,5 9,7 22,5 25,8 20,2 10,8 7 4 20 11 NNW 1017,6 21 60 0,0
21.04.2018 18:00:00 24,2 9,4 24,6 27,6 19,9 10,8 9 5 20 11 WNW 1018,1 18 60 0,0
21.04.2018 17:00:00 24,5 9,0 26,2 28,9 19,4 10,8 11 6 21 11 WNW 1018,5 17 60 0,0
21.04.2018 16:00:00 24,3 8,7 27,1 29,2 18,6 10,8 9 5 20 11 NW 1019,2 21 60 0,0
21.04.2018 15:00:00 24,0 10,5 27,8 28,2 17,8 10,8 11 6 21 11 WNW 1019,8 11 60 0,0
21.04.2018 14:00:00 22,9 10,9 26,7 26,7 16,9 10,7 9 5 24 13 W 1020,4 9 60 0,0
21.04.2018 13:00:00 21,3 11,3 26,5 24,5 16,2 10,7 8 5 16 9 NW 1021,1 7 60 0,0
21.04.2018 12:00:00 20,8 12,4 25,1 21,8 15,5 10,7 8 4 14 7 WNW 1021,5 6 60 0,0
21.04.2018 11:00:00 18,3 11,6 22,6 18,7 15,1 10,7 7 4 12 7 NW 1022,0 5 60 0,0
21.04.2018 10:00:00 17,0 11,4 20,4 16,1 15,0 10,7 5 3 13 7 W 1021,9 6 60 0,0
21.04.2018 09:00:00 15,6 11,0 16,4 14,0 15,1 10,7 7 4 10 5 WNW 1021,9 7 60 0,0
21.04.2018 08:00:00 14,0 10,5 11,7 12,9 15,4 10,6 4 2 8 5 W 1021,8 9 13 0,0
21.04.2018 07:00:00 13,5 10,3 10,1 12,8 15,7 10,6 5 3 9 5 WSW 1021,3 8 0 0,0
21.04.2018 06:00:00 13,4 10,8 9,5 13,3 16,1 10,6 3 2 8 4 WSW 1020,9 10 0 0,0
21.04.2018 05:00:00 14,9 11,2 10,2 13,8 16,4 10,6 4 2 10 5 WSW 1021,0 12 0 0,0
21.04.2018 04:00:00 14,5 11,5 10,5 14,3 16,8 10,6 6 3 10 5 W 1021,2 10 0 0,0
21.04.2018 03:00:00 16,3 12,3 11,2 14,9 17,2 10,6 5 3 8 5 WSW 1021,2 11 0 0,0
21.04.2018 02:00:00 17,5 12,5 12,0 15,6 17,6 10,6 5 3 9 5 W 1021,4 11 0 0,0
21.04.2018 01:00:00 17,1 12,8 12,7 16,3 18,0 10,5 6 3 10 5 W 1021,5 12 0 0,0
21.04.2018 00:00:00 17,7 12,4 13,2 17,1 18,4 10,5 6 3 16 9 W 1021,3 19 0 0,0
20.04.2018 23:00:00 18,6 11,7 14,0 18,0 18,9 10,5 9 5 19 11 WNW 1021,2 25 0 0,0
20.04.2018 22:00:00 17,8 11,8 14,0 19,3 19,3 10,5 2 1 5 3 WSW 1021,0 23 0 0,0
20.04.2018 21:00:00 20,5 11,2 15,2 21,0 19,6 10,5 3 2 9 5 NNW 1020,6 28 3 0,0
20.04.2018 20:00:00 24,4 9,8 18,4 23,4 19,7 10,5 5 3 13 7 NW 1020,2 40 52 0,0
20.04.2018 19:00:00 26,0 8,4 24,0 25,8 19,5 10,5 9 5 17 9 NNW 1020,3 44 60 0,0
20.04.2018 18:00:00 26,7 9,1 26,4 27,5 19,1 10,5 6 4 18 10 NNW 1020,7 50 60 0,0
20.04.2018 17:00:00 26,8 7,1 27,7 28,3 18,6 10,5 9 5 21 11 WNW 1021,0 45 60 0,0

tt = Température de l'air
td = dewpoint
tt 5cm = Température de l'air 5cm
tt -5cm = Température de l'air -5cm
tt -20cm = Température de l'air -20cm
tt -100cm = Température de l'air -100cm
ff = Vitesse du vent
fx = gusts
dd = Direction du vent
ppp = reduced air pressure
vv = visibility
sd = Ensoleillement
rr = Quantités de précipitations

stations d'obs. à proximité